{"data":{"norad_id":53397,"epoch":"2026-09-20T04:44:26.880576Z","epoch_age_seconds":101386,"freshness":"FRESH","line1":"1 53397U 22097K   26263.19753334 -.00035514  00000+0 -10392-2 0  9997","line2":"2 53397  53.1608 323.4812 0002170  52.0784 308.0414 15.34567185227973","mean_motion":15.34567185,"eccentricity":0.000217,"inclination_deg":53.1608,"raan_deg":323.4812,"arg_perigee_deg":52.0784,"mean_anomaly_deg":308.0414,"bstar":-0.0010392,"rev_number":22797,"period_min":93.837533740825,"perigee_km":460.72202175592,"apogee_km":463.69073078122,"semimajor_km":6840.3433762686,"source":"CELESTRAK","updated_at":"2026-09-20T09:00:40.224594Z"}}